This is the latest recevied weather packets stored in our database for station/object N9DMT-13. If no packets are shown the sender has not sent any weather packets the latest 10 day(s).
| Time | Temp. | Humidity | Pressure | Rain* | Wind** | Luminosity | Snow |
|---|---|---|---|---|---|---|---|
| 1778202729 | 10° C | 45% | 978.2 hPa | 0 mm | - | - | - |
| 1778202428 | 10° C | 41% | 978 hPa | 0 mm | - | - | - |
| 1778202127 | 10.56° C | 46% | 978 hPa | 0 mm | - | - | - |
| 1778201827 | 11.11° C | 40% | 977.8 hPa | 0 mm | - | - | - |
| 1778201526 | 11.67° C | 35% | 977.7 hPa | 0 mm | - | - | - |
| 1778201225 | 11.67° C | 35% | 977.8 hPa | 0 mm | - | - | - |
| 1778200924 | 12.22° C | 37% | 977.7 hPa | 0 mm | - | - | - |
| 1778200624 | 12.22° C | 33% | 977.6 hPa | 0 mm | - | - | - |
| 1778200323 | 12.22° C | 37% | 977.6 hPa | 0 mm | - | - | - |
| 1778200022 | 12.78° C | 33% | 977.6 hPa | 0 mm | - | - | - |
| 1778199721 | 12.78° C | 34% | 977.7 hPa | 0 mm | - | - | - |
| 1778199420 | 13.33° C | 34% | 977.5 hPa | 0 mm | - | - | - |
| 1778199120 | 13.33° C | 31% | 977.5 hPa | 0 mm | - | - | - |
| 1778198818 | 13.33° C | 32% | 977.4 hPa | 0 mm | - | - | - |
| 1778198517 | 13.89° C | 31% | 977.5 hPa | 0 mm | - | - | - |
| 1778198217 | 13.89° C | 31% | 977.6 hPa | 0 mm | - | - | - |
| 1778197916 | 13.89° C | 31% | 977.5 hPa | 0 mm | - | - | - |
| 1778197615 | 13.89° C | 34% | 977.4 hPa | 0 mm | - | - | - |
| 1778197314 | 14.44° C | 30% | 977.5 hPa | 0 mm | - | - | - |
| 1778197013 | 14.44° C | 30% | 977.4 hPa | 0 mm | - | - | - |
| 1778196712 | 14.44° C | 31% | 977.4 hPa | 0 mm | - | - | - |
| 1778196411 | 14.44° C | 31% | 977.2 hPa | 0 mm | - | - | - |
| 1778196111 | 14.44° C | 31% | 977.5 hPa | 0 mm | - | - | - |
| 1778195810 | 15° C | 33% | 977.4 hPa | 0 mm | - | - | - |
| 1778195509 | 15° C | 31% | 977.5 hPa | 0 mm | - | - | - |
* Rain latest hour (hover to see other rain measurements)
** Current wind speed in m/s (hover to see current wind gust speed)